period_start,C,m1,H,J0,J1,J2,J3,J4,J5,JA,JB,JC,JD,JJ,JK,JN,#
2015-09-13 00:02:25,0.01,0.95,0.00,23.99,28.75,31.74,14.20,50.20,994.64,2032.92,3023.94,2990.04,3221.98,600.05,581.27,23.40,0000 0000 0000 0000 000000
2015-09-13 00:07:26,0.03,0.95,0.00,24.00,28.75,31.74,14.25,50.15,994.64,2032.90,3023.15,2989.92,3221.38,599.93,581.16,23.45,0000 0000 0000 0000 000000
2015-09-13 00:12:27,0.04,0.95,0.00,24.00,28.75,31.73,14.19,50.04,994.64,2032.92,3022.43,2989.16,3220.98,600.00,581.22,23.50,0000 0000 0000 0000 000000
2015-09-13 00:17:28,0.02,0.95,0.00,24.00,28.75,31.74,14.22,50.11,994.64,2032.90,3021.94,2988.99,3220.38,599.77,580.98,23.55,0000 0000 0000 0000 000000
2015-09-13 00:22:30,0.04,0.95,0.00,23.99,28.75,31.74,14.22,50.10,994.59,2032.92,3021.15,2988.43,3219.99,600.25,581.38,23.60,0000 0000 0000 0000 000000
2015-09-13 00:27:31,0.02,0.95,0.00,24.00,28.76,31.74,14.19,50.03,994.61,2032.87,3020.71,2988.01,3219.44,599.85,581.07,23.65,0000 0000 0000 0000 000000
2015-09-13 00:32:32,0.03,0.96,0.00,24.01,28.77,31.74,14.09,50.01,994.56,2032.83,3019.94,2987.68,3218.96,599.96,581.04,23.70,0000 0000 0000 0000 000000
2015-09-13 00:37:33,0.04,0.96,0.00,24.00,28.77,31.75,14.32,50.09,994.55,2032.70,3019.09,2987.02,3218.18,600.02,581.14,23.75,0000 0000 0000 0000 000000
2015-09-13 00:42:35,0.02,0.96,0.00,24.02,28.77,31.76,14.22,50.10,994.60,2032.72,3018.57,2986.77,3217.93,600.14,581.24,23.80,0000 0000 0000 0000 000000
2015-09-13 00:47:36,0.05,0.96,0.00,24.04,28.77,31.75,14.33,50.22,994.60,2032.75,3017.82,2986.06,3217.16,600.27,581.25,23.85,0000 0000 0000 0000 000000
2015-09-13 00:52:38,0.11,0.96,0.00,24.04,28.78,31.78,14.21,50.08,994.39,2032.68,3015.87,2984.84,3215.89,600.04,581.00,23.90,0000 0000 0000 0000 000000
2015-09-13 00:57:39,0.18,0.97,0.00,24.04,28.80,31.76,14.22,49.98,994.31,2032.74,3012.35,2982.41,3213.23,599.83,580.75,23.95,0000 0000 0000 0000 000000
2015-09-13 01:02:40,0.12,0.98,0.00,24.05,28.80,31.77,14.28,50.27,994.50,2032.53,3009.05,2980.17,3210.73,600.05,581.00,24.00,0000 0000 0000 0000 000000
2015-09-13 01:07:42,0.10,0.99,0.00,24.05,28.80,31.77,14.16,50.12,994.55,2032.39,3006.58,2978.44,3208.75,599.79,580.76,24.05,0000 0000 0000 0000 000000
2015-09-13 01:12:43,0.09,0.99,0.00,24.05,28.80,31.77,14.19,50.10,994.56,2032.42,3004.64,2977.07,3207.36,599.88,580.89,24.10,0000 0000 0000 0000 000000
2015-09-13 01:17:44,0.10,1.00,0.00,24.05,28.80,31.78,14.21,50.10,994.41,2032.37,3002.67,2975.78,3205.90,600.22,581.12,24.15,0000 0000 0000 0000 000000
2015-09-13 01:22:46,0.09,1.00,0.00,24.05,28.80,31.79,14.20,50.15,994.37,2032.40,3000.81,2974.49,3204.54,599.71,580.60,24.20,0000 0000 0000 0000 000000
2015-09-13 01:27:48,0.07,1.01,0.00,24.06,28.80,31.79,14.24,50.24,994.28,2032.36,2999.14,2973.38,3203.34,599.87,580.77,24.25,0000 0000 0000 0000 000000
2015-09-13 01:32:49,0.08,1.01,0.00,24.07,28.80,31.77,14.23,50.19,994.19,2032.48,2997.67,2972.48,3202.27,600.40,581.17,24.30,0000 0000 0000 0000 000000
2015-09-13 01:37:50,0.07,1.01,0.00,24.07,28.80,31.76,14.18,50.14,994.18,2032.34,2995.89,2971.21,3200.89,599.86,580.54,24.35,0000 0000 0000 0000 000000
2015-09-13 01:42:52,0.12,1.02,0.00,24.07,28.80,31.76,14.18,50.33,994.16,2032.31,2993.55,2969.56,3199.18,599.93,580.83,24.40,0000 0000 0000 0000 000000
2015-09-13 01:47:53,0.08,1.02,0.00,24.09,28.80,31.77,14.21,50.08,994.16,2032.25,2991.76,2968.32,3197.87,600.02,580.79,24.45,0000 0000 0000 0000 000000
2015-09-13 01:52:54,0.06,1.03,0.00,24.08,28.80,31.77,14.18,50.13,994.16,2032.28,2990.36,2967.31,3196.79,600.01,580.77,24.50,0000 0000 0000 0000 000000
2015-09-13 01:57:55,0.06,1.03,0.00,24.10,28.80,31.78,14.18,50.13,994.16,2032.30,2989.40,2966.59,3196.03,599.76,580.52,24.55,0000 0000 0000 0000 000000
2015-09-13 02:02:57,0.02,1.03,0.00,24.10,28.80,31.78,14.20,50.18,994.16,2032.26,2988.64,2966.02,3195.33,599.86,580.64,24.60,0000 0000 0000 0000 000000
2015-09-13 02:07:58,0.04,1.03,0.00,24.10,28.81,31.79,14.22,50.13,994.16,2032.15,2987.86,2965.44,3194.74,599.83,580.63,24.65,0000 0000 0000 0000 000000
2015-09-13 02:12:59,0.04,1.04,0.00,24.10,28.82,31.80,14.23,50.17,994.16,2032.14,2986.75,2964.84,3193.99,600.13,580.85,24.70,0000 0000 0000 0000 000000
2015-09-13 02:18:00,0.05,1.04,0.00,24.11,28.82,31.78,14.14,50.13,994.14,2032.23,2985.76,2964.06,3193.18,599.77,580.52,24.75,0000 0000 0000 0000 000000
2015-09-13 02:23:01,0.03,1.04,0.00,24.12,28.82,31.79,14.16,50.23,994.11,2032.24,2984.98,2963.71,3192.75,600.09,580.73,24.80,0000 0000 0000 0000 000000
2015-09-13 02:28:03,0.04,1.04,0.00,24.12,28.82,31.80,14.21,50.18,994.02,2032.25,2984.13,2963.03,3192.03,599.79,580.40,24.85,0000 0000 0000 0000 000000
2015-09-13 02:33:04,0.02,1.04,0.00,24.12,28.82,31.78,14.30,50.25,993.87,2032.24,2983.61,2962.92,3191.68,600.32,580.81,24.90,0000 0000 0000 0000 000000
2015-09-13 02:38:05,0.03,1.05,0.00,24.12,28.82,31.79,14.19,50.22,993.73,2032.17,2983.01,2962.17,3191.03,599.44,579.83,24.95,0000 0000 0000 0000 000000
2015-09-13 02:43:07,0.03,1.05,0.00,24.13,28.82,31.79,14.32,50.11,993.70,2032.19,2982.28,2961.98,3190.68,600.62,581.11,25.00,0000 0000 0000 0000 000000
2015-09-13 02:48:08,0.04,1.05,0.00,24.16,28.82,31.80,14.22,50.19,993.69,2032.14,2981.66,2961.41,3190.03,599.52,579.84,25.05,0000 0000 0000 0000 000000
2015-09-13 02:53:09,0.02,1.05,0.00,24.17,28.82,31.77,14.23,50.07,993.68,2032.14,2980.98,2961.00,3189.55,599.87,580.25,25.10,0000 0000 0000 0000 000000
2015-09-13 02:58:10,0.04,1.05,0.00,24.16,28.82,31.78,14.23,50.17,993.68,2032.11,2980.12,2960.54,3189.00,600.08,580.44,25.15,0000 0000 0000 0000 000000
2015-09-13 03:03:12,0.04,1.05,0.00,24.17,28.82,31.79,14.11,50.03,993.67,2032.13,2979.32,2960.02,3188.40,599.78,580.07,25.20,0000 0000 0000 0000 000000
2015-09-13 03:08:13,0.04,1.06,0.00,24.19,28.82,31.79,14.21,50.09,993.67,2032.05,2978.39,2959.33,3187.75,599.70,579.95,25.25,0000 0000 0000 0000 000000
2015-09-13 03:13:14,0.03,1.06,0.00,24.20,28.82,31.77,14.26,50.17,993.67,2032.09,2977.52,2958.92,3187.03,600.35,580.55,25.30,0000 0000 0000 0000 000000
2015-09-13 03:18:16,0.05,1.06,0.00,24.20,28.82,31.78,14.16,50.13,993.67,2032.06,2976.71,2958.11,3186.30,599.62,579.84,25.35,0000 0000 0000 0000 000000
2015-09-13 03:23:17,0.04,1.06,0.00,24.21,28.82,31.80,14.22,50.15,993.67,2032.32,2976.02,2957.97,3185.98,599.81,580.08,25.40,0000 0000 0000 0000 000000
2015-09-13 03:28:19,0.04,1.07,0.00,24.22,28.82,31.78,14.26,50.11,993.67,2032.33,2975.28,2957.26,3185.31,599.83,580.02,25.45,0000 0000 0000 0000 000000
2015-09-13 03:33:20,0.03,1.07,0.00,24.22,28.82,31.79,14.21,50.17,993.67,2032.24,2974.34,2956.88,3184.74,600.12,580.24,25.50,0000 0000 0000 0000 000000
2015-09-13 03:38:21,0.05,1.07,0.00,24.22,28.83,31.78,14.22,50.08,993.67,2032.34,2973.45,2956.09,3184.02,600.14,580.43,25.55,0000 0000 0000 0000 000000
2015-09-13 03:43:22,0.03,1.07,0.00,24.24,28.83,31.77,14.22,50.19,993.67,2032.24,2972.62,2955.73,3183.40,600.16,580.42,25.60,0000 0000 0000 0000 000000
2015-09-13 03:48:23,0.03,1.07,0.00,24.25,28.84,31.77,14.11,50.16,993.67,2032.16,2971.75,2955.03,3182.76,599.79,579.94,25.65,0000 0000 0000 0000 000000
2015-09-13 03:53:25,0.05,1.08,0.00,24.26,28.85,31.77,14.13,49.99,993.67,2032.17,2970.91,2954.48,3182.02,600.04,580.16,25.70,0000 0000 0000 0000 000000
2015-09-13 03:58:26,0.03,1.08,0.00,24.27,28.85,31.77,14.24,50.12,993.65,2032.16,2970.05,2953.98,3181.21,600.23,580.24,25.75,0000 0000 0000 0000 000000
2015-09-13 04:03:27,0.06,1.08,0.00,24.27,28.85,31.78,14.23,50.13,993.62,2032.19,2968.98,2953.33,3180.62,600.15,580.24,25.80,0000 0000 0000 0000 000000
2015-09-13 04:08:29,0.06,1.08,0.00,24.27,28.85,31.76,14.28,50.15,993.56,2032.16,2967.73,2952.36,3179.62,600.41,580.42,25.85,0000 0000 0000 0000 000000
2015-09-13 04:13:30,0.03,1.09,0.00,24.27,28.85,31.79,14.13,50.12,993.42,2032.12,2966.66,2951.87,3178.88,599.82,579.77,25.90,0000 0000 0000 0000 000000
2015-09-13 04:18:31,0.04,1.09,0.00,24.29,28.85,31.77,14.23,50.11,993.29,2032.07,2965.77,2951.08,3178.06,600.03,579.94,25.95,0000 0000 0000 0000 000000
2015-09-13 04:23:32,0.06,1.09,0.00,24.30,28.85,31.77,14.13,50.18,993.26,2032.05,2964.68,2950.47,3177.29,599.91,579.70,26.00,0000 0000 0000 0000 000000
2015-09-13 04:28:34,0.05,1.09,0.00,24.30,28.86,31.78,14.20,50.13,993.22,2032.05,2963.44,2949.72,3176.35,600.11,579.89,26.05,0000 0000 0000 0000 000000
2015-09-13 04:33:35,0.05,1.10,0.00,24.31,28.87,31.79,14.25,50.14,993.19,2032.10,2962.32,2949.02,3175.60,600.09,579.79,26.10,0000 0000 0000 0000 000000
2015-09-13 04:38:36,0.04,1.10,0.00,24.32,28.87,31.79,14.20,50.13,993.20,2032.07,2961.32,2948.29,3174.80,600.11,579.75,26.16,0000 0000 0000 0000 000000
2015-09-13 04:43:38,0.05,1.10,0.00,24.32,28.87,31.79,14.22,50.14,993.19,2032.04,2960.24,2947.64,3173.94,600.09,579.83,26.21,0000 0000 0000 0000 000000
2015-09-13 04:48:39,0.05,1.11,0.00,24.32,28.87,31.79,14.21,50.15,993.18,2032.04,2959.02,2946.89,3173.01,600.13,579.84,26.26,0000 0000 0000 0000 000000
2015-09-13 04:53:40,0.06,1.11,0.00,24.34,28.87,31.78,14.16,50.06,993.18,2032.04,2957.73,2946.05,3172.03,599.83,579.50,26.31,0000 0000 0000 0000 000000
2015-09-13 04:58:41,0.06,1.11,0.00,24.35,28.87,31.78,14.22,50.15,993.19,2032.03,2956.52,2945.21,3171.10,599.98,579.67,26.36,0000 0000 0000 0000 000000
2015-09-13 05:03:42,0.06,1.11,0.00,24.37,28.87,31.79,14.23,50.29,993.18,2032.04,2955.30,2944.52,3170.20,600.09,579.69,26.41,0000 0000 0000 0000 000000
2015-09-13 05:08:43,0.06,1.12,0.00,24.37,28.87,31.76,14.26,50.17,993.18,2032.04,2953.87,2943.77,3169.18,600.27,579.79,26.46,0000 0000 0000 0000 000000
2015-09-13 05:13:45,0.06,1.12,0.00,24.39,28.87,31.77,14.19,50.14,993.18,2032.02,2952.50,2942.88,3168.06,600.11,579.67,26.51,0000 0000 0000 0000 000000
2015-09-13 05:18:46,0.06,1.12,0.00,24.39,28.87,31.76,14.22,50.11,993.18,2032.02,2951.04,2941.95,3166.98,600.24,579.79,26.56,0000 0000 0000 0000 000000
2015-09-13 05:23:47,0.08,1.13,0.00,24.40,28.88,31.78,14.16,50.10,993.15,2032.01,2949.58,2941.02,3165.82,599.91,579.61,26.61,0000 0000 0000 0000 000000
2015-09-13 05:28:48,0.06,1.13,0.00,24.42,28.89,31.78,14.20,50.24,993.16,2032.03,2948.19,2940.09,3164.77,600.39,579.89,26.66,0000 0000 0000 0000 000000
2015-09-13 05:33:49,0.08,1.14,0.00,24.42,28.89,31.76,14.22,50.21,993.16,2032.01,2946.68,2939.14,3163.67,600.18,579.64,26.71,0000 0000 0000 0000 000000
2015-09-13 05:38:51,0.07,1.14,0.00,24.44,28.90,31.79,14.14,50.18,993.14,2032.04,2945.28,2938.17,3162.56,599.79,579.21,26.76,0000 0000 0000 0000 000000
2015-09-13 05:43:52,0.07,1.14,0.00,24.45,28.90,31.79,14.22,50.21,993.16,2032.05,2943.89,2937.38,3161.53,600.15,579.62,26.81,0000 0000 0000 0000 000000
2015-09-13 05:48:53,0.07,1.15,0.00,24.45,28.90,31.78,14.17,50.17,993.17,2032.04,2942.44,2936.38,3160.40,600.10,579.54,26.86,0000 0000 0000 0000 000000
2015-09-13 05:53:54,0.07,1.15,0.00,24.47,28.90,31.76,14.11,50.09,993.16,2032.03,2940.93,2935.52,3159.32,599.99,579.40,26.91,0000 0000 0000 0000 000000
2015-09-13 05:58:55,0.08,1.15,0.00,24.47,28.90,31.78,14.25,50.06,993.13,2032.04,2939.51,2934.52,3158.25,599.89,579.21,26.96,0000 0000 0000 0000 000000
2015-09-13 06:03:57,0.07,1.16,0.00,24.47,28.90,31.78,14.19,50.17,993.01,2032.02,2937.97,2933.57,3157.05,600.34,579.70,27.01,0000 0000 0000 0000 000000
2015-09-13 06:08:58,0.07,1.16,0.00,24.47,28.90,31.78,14.22,50.16,993.12,2032.01,2936.42,2932.56,3155.88,600.18,579.46,27.06,0000 0000 0000 0000 000000
2015-09-13 06:13:59,0.09,1.17,0.00,24.49,28.90,31.77,14.11,50.00,993.13,2032.00,2934.77,2931.49,3154.54,599.99,579.34,27.11,0000 0000 0000 0000 000000
2015-09-13 06:19:01,0.08,1.17,0.00,24.50,28.90,31.77,14.12,49.97,993.08,2032.00,2932.96,2930.16,3153.07,599.90,579.13,27.16,0000 0000 0000 0000 000000
2015-09-13 06:24:02,0.08,1.17,0.00,24.52,28.90,31.76,14.14,50.11,992.84,2032.01,2931.39,2929.14,3151.79,600.23,579.36,27.21,0000 0000 0000 0000 000000
2015-09-13 06:29:03,0.07,1.18,0.00,24.53,28.90,31.77,14.11,50.07,992.81,2032.01,2929.76,2928.09,3150.57,600.10,579.19,27.26,0000 0000 0000 0000 000000
2015-09-13 06:34:05,0.07,1.18,0.00,24.54,28.90,31.77,14.13,50.08,992.74,2032.03,2928.34,2927.16,3149.48,599.94,578.94,27.31,0000 0000 0000 0000 000000
2015-09-13 06:39:06,0.07,1.19,0.00,24.55,28.90,31.77,14.18,50.20,992.73,2032.02,2926.82,2926.17,3148.35,600.15,579.17,27.36,0000 0000 0000 0000 000000
2015-09-13 06:44:07,0.07,1.19,0.00,24.57,28.92,31.77,14.18,50.20,992.71,2032.01,2925.28,2925.13,3147.11,600.48,579.42,27.41,0000 0000 0000 0000 000000
2015-09-13 06:49:09,0.07,1.19,0.00,24.60,28.92,31.77,14.25,50.30,992.78,2032.01,2923.83,2924.21,3145.99,600.31,579.24,27.46,0000 0000 0000 0000 000000
2015-09-13 06:54:10,0.07,1.20,0.00,24.60,28.92,31.78,14.21,50.17,992.83,2032.01,2922.46,2923.29,3144.94,599.94,578.86,27.51,0000 0000 0000 0000 000000
2015-09-13 06:59:11,0.06,1.20,0.00,24.61,28.92,31.78,14.15,50.23,992.83,2032.00,2921.07,2922.46,3143.86,600.04,578.99,27.56,0000 0000 0000 0000 000000
2015-09-13 07:04:13,0.08,1.20,0.00,24.62,28.92,31.78,14.15,50.18,992.77,2032.00,2919.57,2921.47,3142.74,599.98,578.82,27.61,0000 0000 0000 0000 000000
2015-09-13 07:09:14,0.05,1.21,0.00,24.62,28.93,31.78,14.14,50.15,992.72,2032.00,2918.34,2920.74,3141.74,600.04,578.84,27.66,0000 0000 0000 0000 000000
2015-09-13 07:14:16,0.04,1.21,0.00,24.62,28.93,31.80,14.27,50.26,992.72,2032.00,2917.17,2920.02,3140.95,600.28,579.07,27.71,0000 0000 0000 0000 000000
2015-09-13 07:19:17,0.06,1.21,0.00,24.62,28.93,31.79,14.19,50.08,992.72,2032.00,2916.05,2919.22,3140.07,600.16,578.90,27.76,0000 0000 0000 0000 000000
2015-09-13 07:24:19,0.05,1.22,0.00,24.62,28.93,31.82,14.15,50.08,992.74,2032.00,2915.06,2918.62,3139.22,600.10,578.98,27.81,0000 0000 0000 0000 000000
2015-09-13 07:29:20,0.03,1.22,0.00,24.64,28.93,31.82,14.20,50.12,992.75,2032.00,2914.11,2918.02,3138.67,600.34,579.18,27.86,0000 0000 0000 0000 000000
2015-09-13 07:34:21,0.05,1.22,0.00,24.65,28.92,31.80,14.11,49.91,992.83,2032.00,2913.25,2917.38,3138.01,599.78,578.60,27.91,0000 0000 0000 0000 000000
2015-09-13 07:39:23,0.03,1.22,0.00,24.65,28.92,31.82,14.29,50.10,992.93,2032.00,2912.42,2916.97,3137.19,600.12,578.83,27.96,0000 0000 0000 0000 000000
2015-09-13 07:44:24,0.04,1.23,0.00,24.65,28.92,31.80,14.22,50.02,992.97,2032.00,2911.79,2916.24,3136.71,600.23,579.18,28.01,0000 0000 0000 0000 000000
2015-09-13 07:49:25,0.02,1.23,0.00,24.65,28.92,31.80,14.24,50.16,992.93,2032.00,2911.00,2915.98,3136.05,600.29,579.14,28.06,0000 0000 0000 0000 000000
2015-09-13 07:54:26,0.05,1.23,0.00,24.65,28.92,31.80,14.18,50.18,993.09,2032.00,2910.13,2915.26,3135.44,600.07,579.08,28.11,0000 0000 0000 0000 000000
2015-09-13 07:59:28,0.01,1.23,0.00,24.65,28.92,31.80,14.13,50.04,993.16,2032.00,2909.70,2915.00,3135.01,599.86,579.00,28.16,0000 0000 0000 0000 000000
2015-09-13 08:04:29,0.01,1.23,0.00,24.65,28.92,31.79,14.21,50.16,993.17,2032.00,2909.04,2914.88,3134.98,600.27,579.39,28.21,0000 0000 0000 0000 000000
2015-09-13 08:09:30,0.05,1.23,0.00,24.64,28.92,31.79,14.13,50.02,993.18,2032.00,2908.57,2914.15,3134.36,599.93,579.01,28.26,0000 0000 0000 0000 000000
2015-09-13 08:14:31,0.00,1.24,0.00,24.64,28.92,31.81,14.11,49.92,993.18,2032.00,2908.02,2914.00,3134.00,599.92,578.99,28.31,0000 0000 0000 0000 000000
2015-09-13 08:19:32,0.03,1.24,0.00,24.65,28.92,31.80,14.19,50.05,993.18,2032.00,2907.64,2913.76,3133.79,600.27,579.22,28.36,0000 0000 0000 0000 000000
2015-09-13 08:24:34,0.03,1.24,0.00,24.65,28.92,31.79,14.12,50.06,993.18,2032.00,2907.02,2913.11,3133.10,599.70,578.85,28.41,0000 0000 0000 0000 000000
2015-09-13 08:29:35,0.00,1.24,0.00,24.65,28.92,31.79,14.21,50.09,993.18,2032.00,2906.94,2913.00,3133.00,600.17,579.32,28.46,0000 0000 0000 0000 000000
2015-09-13 08:34:37,0.02,1.24,0.00,24.65,28.92,31.81,14.12,50.01,993.19,2032.00,2906.14,2912.95,3132.81,600.15,579.28,28.51,0000 0000 0000 0000 000000
2015-09-13 08:39:38,0.03,1.24,0.00,24.65,28.92,31.79,14.18,50.03,993.19,2032.00,2905.94,2912.25,3132.08,600.06,579.14,28.56,0000 0000 0000 0000 000000
2015-09-13 08:44:40,0.01,1.24,0.00,24.65,28.91,31.80,14.16,50.00,993.19,2032.00,2905.25,2912.01,3132.00,600.12,579.19,28.61,0000 0000 0000 0000 000000
2015-09-13 08:49:41,0.00,1.24,0.00,24.65,28.91,31.80,14.15,50.11,993.19,2032.00,2905.01,2912.00,3131.98,600.09,579.20,28.66,0000 0000 0000 0000 000000
2015-09-13 08:54:42,0.02,1.24,0.00,24.65,28.90,31.79,14.17,50.08,993.18,2032.00,2904.93,2911.95,3131.41,600.39,579.42,28.71,0000 0000 0000 0000 000000
2015-09-13 08:59:43,0.04,1.25,0.00,24.65,28.90,31.80,14.11,50.13,993.20,2032.00,2904.22,2911.45,3131.03,599.58,578.69,28.76,0000 0000 0000 0000 000000
2015-09-13 09:04:45,0.01,1.25,0.00,24.63,28.90,31.82,14.20,50.08,993.22,2032.00,2903.92,2911.03,3130.94,599.83,578.94,28.81,0000 0000 0000 0000 000000
2015-09-13 09:09:46,0.03,1.25,0.00,24.64,28.90,31.79,14.14,50.01,993.21,2032.00,2903.10,2910.91,3130.24,600.36,579.52,28.86,0000 0000 0000 0000 000000
2015-09-13 09:14:47,0.02,1.25,0.00,24.65,28.90,31.79,14.14,50.13,993.20,2032.00,2902.96,2910.17,3130.00,600.10,579.18,28.91,0000 0000 0000 0000 000000
2015-09-13 09:19:49,0.01,1.25,0.00,24.65,28.90,31.78,14.19,50.18,993.19,2031.99,2902.57,2910.00,3129.96,600.11,579.23,28.96,0000 0000 0000 0000 000000
2015-09-13 09:24:50,0.01,1.25,0.00,24.65,28.90,31.79,14.16,50.12,993.19,2031.99,2902.05,2910.00,3129.65,599.76,578.85,29.01,0000 0000 0000 0000 000000
2015-09-13 09:29:51,0.01,1.25,0.00,24.63,28.90,31.78,14.18,50.19,993.19,2031.99,2901.98,2909.89,3129.07,600.00,579.13,29.06,0000 0000 0000 0000 000000
2015-09-13 09:34:53,0.03,1.25,0.00,24.62,28.90,31.80,14.16,50.20,993.20,2031.99,2901.52,2909.28,3129.00,600.00,579.24,29.11,0000 0000 0000 0000 000000
2015-09-13 09:39:54,0.01,1.25,0.00,24.62,28.90,31.79,14.18,50.09,993.20,2031.99,2901.04,2909.04,3128.97,599.89,579.03,29.16,0000 0000 0000 0000 000000
2015-09-13 09:44:55,0.00,1.25,0.00,24.61,28.90,31.79,14.12,50.13,993.21,2031.99,2901.00,2909.00,3128.78,599.79,578.93,29.21,0000 0000 0000 0000 000000
2015-09-13 09:49:56,0.01,1.25,0.00,24.61,28.90,31.79,14.17,50.12,993.19,2031.99,2900.86,2908.99,3128.16,599.91,579.15,29.26,0000 0000 0000 0000 000000
2015-09-13 09:54:58,0.01,1.26,0.00,24.60,28.90,31.77,14.15,50.26,993.19,2031.99,2900.20,2908.96,3128.01,600.00,579.18,29.31,0000 0000 0000 0000 000000
2015-09-13 09:59:59,0.01,1.26,0.00,24.60,28.88,31.78,14.12,50.16,993.18,2031.99,2900.01,2908.61,3127.99,599.86,579.07,29.36,0000 0000 0000 0000 000000
2015-09-13 10:05:01,0.01,1.26,0.00,24.59,28.87,31.78,14.10,50.15,993.18,2031.99,2899.96,2908.07,3127.95,599.94,579.08,29.41,0000 0000 0000 0000 000000
2015-09-13 10:10:02,0.01,1.26,0.00,24.58,28.87,31.78,14.22,50.20,993.19,2031.99,2899.55,2908.01,3127.84,599.92,579.17,29.46,0000 0000 0000 0000 000000
2015-09-13 10:15:03,0.01,1.26,0.00,24.60,28.87,31.78,14.17,50.13,993.19,2031.99,2899.05,2908.00,3127.25,600.06,579.24,29.51,0000 0000 0000 0000 000000
2015-09-13 10:20:05,0.00,1.26,0.00,24.59,28.87,31.78,14.23,50.17,993.19,2031.99,2898.99,2907.99,3127.04,600.16,579.31,29.56,0000 0000 0000 0000 000000
2015-09-13 10:25:06,0.01,1.26,0.00,24.57,28.87,31.78,14.22,50.10,993.26,2032.00,2898.72,2907.95,3127.00,599.92,579.22,29.61,0000 0000 0000 0000 000000
2015-09-13 10:30:08,0.03,1.26,0.00,24.56,28.86,31.78,14.15,50.04,993.49,2032.00,2898.06,2907.43,3126.95,600.18,579.63,29.66,0000 0000 0000 0000 000000
2015-09-13 10:35:09,0.01,1.26,0.00,24.55,28.85,31.80,14.20,50.20,993.56,2032.00,2897.99,2907.03,3126.51,600.22,579.74,29.71,0000 0000 0000 0000 000000
2015-09-13 10:40:11,0.01,1.26,0.00,24.55,28.85,31.78,14.12,50.06,993.65,2032.00,2897.58,2907.00,3126.07,599.75,579.27,29.77,0000 0000 0000 0000 000000
2015-09-13 10:45:12,0.00,1.26,0.00,24.55,28.85,31.78,14.13,49.92,993.65,2032.00,2897.02,2906.95,3125.99,599.74,579.38,29.82,0000 0000 0000 0000 000000
2015-09-13 10:50:14,0.02,1.26,0.00,24.55,28.85,31.78,14.21,50.06,993.67,2032.00,2896.85,2906.53,3125.89,599.99,579.55,29.87,0000 0000 0000 0000 000000
2015-09-13 10:55:15,0.03,1.27,0.00,24.54,28.85,31.77,14.14,50.02,993.66,2032.01,2896.09,2906.04,3125.26,600.06,579.62,29.92,0000 0000 0000 0000 000000
2015-09-13 11:00:16,0.00,1.27,0.00,24.52,28.85,31.77,14.20,49.88,993.65,2032.00,2895.95,2906.00,3125.01,599.81,579.32,29.97,0000 0000 0000 0000 000000
2015-09-13 11:05:17,0.02,1.27,0.00,24.52,28.85,31.77,14.18,50.05,993.65,2032.00,2895.28,2905.75,3124.94,600.14,579.85,30.02,0000 0000 0000 0000 000000
2015-09-13 11:10:19,0.03,1.27,0.00,24.51,28.85,31.77,14.19,49.96,993.67,2032.01,2894.99,2905.09,3124.32,600.04,579.66,30.07,0000 0000 0000 0000 000000
2015-09-13 11:15:20,0.02,1.27,0.00,24.50,28.84,31.76,14.21,50.00,993.67,2032.01,2894.28,2904.99,3124.00,600.03,579.84,30.12,0000 0000 0000 0000 000000
2015-09-13 11:20:21,0.06,1.27,0.00,24.49,28.84,31.78,14.18,49.99,993.67,2032.03,2893.35,2904.30,3123.34,600.09,579.71,30.17,0000 0000 0000 0000 000000
2015-09-13 11:25:22,0.03,1.28,0.00,24.48,28.83,31.77,14.19,50.04,993.67,2032.03,2892.21,2903.83,3122.76,600.17,579.91,30.22,0000 0000 0000 0000 000000
2015-09-13 11:30:23,0.05,1.28,0.00,24.47,28.82,31.77,14.15,50.03,993.67,2032.03,2891.52,2903.07,3122.05,600.02,579.73,30.27,0000 0000 0000 0000 000000
2015-09-13 11:35:24,0.01,1.28,0.00,24.47,28.82,31.78,14.20,50.06,993.67,2032.04,2890.90,2902.90,3121.86,600.12,579.63,30.32,0000 0000 0000 0000 000000
2015-09-13 11:40:26,0.15,1.28,0.00,24.47,28.82,31.76,14.12,50.01,993.67,2032.09,2888.67,2901.30,3120.17,600.26,579.96,30.37,0000 0000 0000 0000 000000
2015-09-13 11:45:27,0.15,1.29,0.00,24.46,28.82,31.76,14.18,50.09,993.68,2032.19,2885.76,2899.24,3117.96,599.87,579.79,30.42,0000 0000 0000 0000 000000
2015-09-13 11:50:29,0.12,1.30,0.00,24.45,28.82,31.76,14.18,50.15,993.67,2032.20,2883.34,2897.54,3116.14,600.11,579.85,30.47,0000 0000 0000 0000 000000
2015-09-13 11:55:30,0.12,1.31,0.00,24.44,28.83,31.75,14.25,50.09,993.67,2032.13,2881.11,2895.85,3114.41,600.41,580.16,30.52,0000 0000 0000 0000 000000
2015-09-13 12:00:31,0.09,1.31,0.00,24.42,28.83,31.76,14.24,50.15,993.67,2032.09,2879.07,2894.33,3112.78,599.92,579.76,30.57,0000 0000 0000 0000 000000
2015-09-13 12:05:33,0.10,1.32,0.00,24.42,28.84,31.78,14.15,50.10,993.67,2032.12,2877.43,2893.03,3111.45,599.95,579.74,30.62,0000 0000 0000 0000 000000
2015-09-13 12:10:34,0.05,1.32,0.00,24.42,28.84,31.76,14.31,50.17,993.67,2032.17,2876.21,2892.12,3110.64,600.39,580.18,30.67,0000 0000 0000 0000 000000
2015-09-13 12:15:36,0.05,1.32,0.00,24.42,28.84,31.76,14.24,50.09,993.67,2032.10,2875.22,2891.50,3109.77,600.23,579.97,30.72,0000 0000 0000 0000 000000
2015-09-13 12:20:37,0.10,1.33,0.00,24.42,28.85,31.76,14.22,50.13,993.67,2032.08,2873.47,2890.16,3108.40,600.10,579.95,30.77,0000 0000 0000 0000 000000
2015-09-13 12:25:38,0.07,1.33,0.00,24.41,28.85,31.77,14.25,50.00,993.67,2032.14,2871.88,2888.99,3107.12,599.88,579.78,30.82,0000 0000 0000 0000 000000
2015-09-13 12:30:39,0.10,1.34,0.00,24.40,28.84,31.76,14.16,50.13,993.61,2032.11,2870.21,2887.78,3105.78,599.84,579.66,30.87,0000 0000 0000 0000 000000
2015-09-13 12:35:41,0.09,1.34,0.00,24.40,28.84,31.77,14.25,50.26,993.59,2032.19,2868.54,2886.71,3104.60,600.29,580.05,30.92,0000 0000 0000 0000 000000
2015-09-13 12:40:42,0.05,1.34,0.00,24.40,28.84,31.75,14.19,50.12,993.60,2032.19,2867.17,2885.78,3103.55,599.89,579.63,30.97,0000 0000 0000 0000 000000
2015-09-13 12:45:43,0.07,1.35,0.00,24.39,28.83,31.76,14.16,50.17,993.64,2032.10,2865.67,2884.73,3102.37,600.01,579.88,31.02,0000 0000 0000 0000 000000
2015-09-13 12:50:44,0.07,1.35,0.00,24.38,28.83,31.76,14.14,50.16,993.67,2032.18,2864.24,2883.79,3101.37,600.33,580.20,31.07,0000 0000 0000 0000 000000
2015-09-13 12:55:45,0.08,1.36,0.00,24.37,28.82,31.75,14.24,50.10,993.67,2032.21,2862.70,2882.75,3100.16,600.35,580.33,31.12,0000 0000 0000 0000 000000
2015-09-13 13:00:47,0.11,1.36,0.00,24.37,28.82,31.77,14.20,50.17,993.67,2032.18,2860.62,2881.34,3098.65,600.20,580.03,31.17,0000 0000 0000 0000 000000